CW5619 Weather Reports


time (UTC)temp
C
wind
direction
speed
KPH
gust
KPH
rain 1hr
cm
rain 24hr
cm
rain mn
cm
humidity
%
barometer
mb
20260901160904 27 146 3.2 4.8 0.00 2.26 0.00 61 1017.2
20260901155903 27 116 1.6 4.8 0.00 2.26 0.00 61 1017.2
20260901155404 27 97 1.6 9.7 0.00 2.26 0.00 61 1017.2
20260901154903 27 102 3.2 9.7 0.00 2.26 0.00 61 1017.2
20260901153903 26 116 1.6 4.8 0.00 2.26 0.00 63 1017.2
20260901153403 26 97 1.6 4.8 0.00 2.26 0.00 65 1017.2
20260901152902 26 123 1.6 9.7 0.00 2.26 0.00 65 1017.2
20260901152403 26 126 1.6 9.7 0.00 2.26 0.00 66 1017.2
20260901151903 26 161 1.6 4.8 0.00 2.26 0.00 66 1017.2
20260901151403 25 106 1.6 9.7 0.00 2.26 0.00 66 1017.2
20260901150903 25 104 4.8 9.7 0.00 2.26 0.00 67 1017.3
20260901150403 25 109 1.6 9.7 0.00 2.26 0.00 68 1017.3
20260901145902 25 115 1.6 4.8 0.00 2.26 0.00 69 1017.3
20260901145403 25 127 1.6 4.8 0.00 2.26 0.00 70 1017.2
20260901144903 24 115 1.6 8.0 0.00 2.26 0.00 71 1017.2
20260901143403 23 108 1.6 9.7 0.00 2.26 0.00 73 1017.1
20260901142902 23 85 3.2 9.7 0.00 2.26 0.00 73 1017.2
20260901142403 23 66 1.6 8.0 0.00 2.26 0.00 74 1017.2
20260901141903 23 114 1.6 8.0 0.00 2.26 0.00 75 1017.1
20260901140902 22 108 3.2 9.7 0.00 2.26 0.00 77 1017.0
20260901140403 22 102 1.6 4.8 0.00 2.26 0.00 78 1016.9
20260901135903 22 120 1.6 4.8 0.00 2.26 0.00 80 1016.8
20260901135403 21 123 1.6 4.8 0.00 2.26 0.00 81 1016.7
20260901134903 21 115 1.6 4.8 0.00 2.26 0.00 81 1016.8
20260901134402 21 94 1.6 9.7 0.00 2.26 0.00 82 1016.8
20260901133903 21 99 1.6 9.7 0.00 2.26 0.00 83 1016.7
20260901133403 21 87 1.6 4.8 0.00 2.26 0.00 83 1016.7
20260901132903 21 99 1.6 4.8 0.00 2.26 0.00 84 1016.7
20260901131903 21 91 0.0 3.2 0.00 2.26 0.00 84 1016.6
20260901131403 21 85 0.0 1.6 0.00 2.26 0.00 83 1016.4
20260901130903 21 96 0.0 3.2 0.00 2.26 0.00 83 1016.4
20260901130403 21 86 0.0 3.2 0.00 2.26 0.00 83 1016.3
20260901125403 21 109 0.0 3.2 0.00 2.26 0.00 83 1016.2
20260901124903 21 87 0.0 3.2 0.00 2.26 0.00 83 1016.1
20260901124403 21 63 0.0 1.6 0.00 2.26 0.00 83 1016.0
20260901123403 21 113 0.0 0.0 0.00 2.26 0.00 83 1015.9
20260901122903 21 113 0.0 0.0 0.00 2.26 0.00 83 1016.0
20260901122403 21 113 0.0 1.6 0.00 2.26 0.00 82 1015.9
20260901121903 21 113 0.0 1.6 0.00 2.26 0.00 82 1015.8
20260901121404 21 113 0.0 3.2 0.00 2.26 0.00 82 1015.8
20260901120903 21 109 0.0 4.8 0.00 2.26 0.00 82 1015.8
20260901120403 21 93 1.6 4.8 0.00 2.26 0.00 81 1015.7
20260901115903 21 103 1.6 4.8 0.00 2.26 0.00 81 1015.6
20260901115403 21 89 0.0 3.2 0.00 2.26 0.00 81 1015.5
20260901114902 21 76 0.0 3.2 0.00 2.26 0.00 82 1015.6
20260901114402 21 99 0.0 3.2 0.00 2.26 0.00 82 1015.6
20260901113903 21 98 1.6 3.2 0.00 2.26 0.00 82 1015.6
20260901113402 21 51 0.0 4.8 0.00 2.26 0.00 82 1015.6
20260901112902 21 68 0.0 4.8 0.00 2.26 0.00 82 1015.7
20260901112403 21 81 1.6 4.8 0.00 2.26 0.00 82 1015.7
20260901111903 21 85 1.6 4.8 0.00 2.26 0.00 82 1015.7
20260901110903 21 69 0.0 4.8 0.00 2.26 0.00 82 1015.6
20260901110404 21 97 1.6 4.8 0.00 2.26 0.00 82 1015.4
20260901105903 21 106 1.6 4.8 0.00 2.26 0.00 82 1015.6
20260901105402 21 92 1.6 4.8 0.00 2.26 0.00 82 1015.6
20260901104903 21 88 1.6 4.8 0.00 2.26 0.00 82 1015.6
20260901104403 21 81 1.6 4.8 0.00 2.26 0.00 82 1015.5
20260901103403 21 126 1.6 4.8 0.00 2.26 0.00 82 1015.5
20260901102903 21 98 1.6 4.8 0.00 2.26 0.00 82 1015.6
20260901101903 21 100 1.6 4.8 0.00 2.26 0.00 81 1015.5
20260901101403 21 78 0.0 3.2 0.00 2.26 0.00 81 1015.4
20260901100903 22 78 0.0 0.0 0.00 2.26 0.00 80 1015.4
20260901100403 22 78 0.0 3.2 0.00 2.26 0.00 80 1015.4
20260901095903 22 78 0.0 3.2 0.00 2.26 0.00 80 1015.4
20260901094402 22 72 0.0 3.2 0.00 2.26 0.00 80 1015.4
20260901093403 22 76 0.0 4.8 0.00 2.26 0.00 80 1015.4
20260901092903 22 109 1.6 4.8 0.00 2.26 0.00 80 1015.3
20260901092403 22 103 0.0 4.8 0.00 2.26 0.00 80 1015.4
20260901091903 22 88 0.0 4.8 0.00 2.26 0.00 80 1015.3
20260901091403 22 98 1.6 4.8 0.00 2.26 0.00 79 1015.3
20260901090903 22 65 1.6 4.8 0.00 2.26 0.00 79 1015.4
20260901090403 22 67 0.0 4.8 0.00 2.26 0.00 79 1015.4
20260901085903 22 72 0.0 4.8 0.00 2.26 0.00 79 1015.6
20260901085403 22 86 3.2 4.8 0.00 2.26 0.00 79 1015.6
20260901084403 22 95 1.6 4.8 0.00 2.26 0.00 80 1015.6
20260901083903 22 88 1.6 3.2 0.00 2.26 0.00 80 1015.5
20260901083403 22 88 1.6 4.8 0.00 2.26 0.00 80 1015.5
20260901082903 22 112 1.6 4.8 0.00 2.26 0.00 80 1015.5
20260901082403 22 68 1.6 4.8 0.00 2.26 0.00 79 1015.5
20260901081902 22 90 1.6 4.8 0.00 2.26 0.00 79 1015.5
20260901081403 22 67 0.0 4.8 0.00 2.26 0.00 79 1015.5
20260901080903 22 100 1.6 4.8 0.00 2.26 0.00 78 1015.5
20260901080404 23 83 1.6 4.8 0.00 2.26 0.00 77 1015.5
20260901075903 23 89 3.2 4.8 0.00 2.26 0.00 77 1015.4
20260901075403 23 97 1.6 4.8 0.00 2.26 0.00 77 1015.4
20260901074403 23 87 0.0 4.8 0.00 2.26 0.00 74 1015.5
20260901073903 23 91 0.0 3.2 0.00 2.26 0.00 74 1015.6
20260901073403 23 90 0.0 4.8 0.00 2.26 0.00 73 1015.6
20260901072903 23 119 1.6 4.8 0.00 2.26 0.00 72 1015.6
20260901071903 24 91 1.6 9.7 0.00 2.26 0.00 70 1015.6
20260901071403 24 126 1.6 9.7 0.00 2.26 0.00 70 1015.6
20260901070903 24 116 1.6 4.8 0.00 2.26 0.00 70 1015.5
20260901070403 24 92 0.0 4.8 0.00 2.26 0.00 69 1015.6
20260901065903 24 85 1.6 4.8 0.00 2.26 2.26 69 1015.6
20260901065403 24 157 0.0 11.3 0.00 2.26 2.26 68 1015.6
20260901064903 24 116 1.6 11.3 0.00 2.26 2.26 68 1015.6
20260901064403 24 182 0.0 4.8 0.00 2.26 2.26 69 1015.6
20260901063903 24 123 3.2 9.7 0.00 2.26 2.26 69 1015.6
20260901062903 24 82 3.2 9.7 0.00 2.26 2.26 69 1015.6
20260901062403 24 109 1.6 8.0 0.00 2.26 2.26 71 1015.7
20260901061904 24 105 1.6 4.8 0.00 2.26 2.26 71 1015.8
20260901060402 24 103 1.6 4.8 0.00 2.26 2.26 72 1015.6
20260901055402 24 68 0.0 3.2 0.00 2.26 2.26 71 1015.8
20260901054903 24 150 0.0 3.2 0.00 2.26 2.26 70 1015.8
20260901053903 24 92 1.6 4.8 0.00 2.26 2.26 70 1015.7
20260901052403 25 130 1.6 4.8 0.00 2.26 2.26 69 1015.6
20260901051904 25 103 1.6 4.8 0.00 2.26 2.26 68 1015.6
20260901051403 25 140 1.6 9.7 0.00 2.26 2.26 68 1015.5
20260901050903 25 114 3.2 9.7 0.00 2.26 2.26 68 1015.6
20260901050403 25 110 3.2 9.7 0.00 2.26 2.26 68 1015.7
20260901045903 25 129 3.2 4.8 0.00 2.26 2.26 68 1015.7
20260901045403 25 140 1.6 4.8 0.00 2.26 2.26 68 1015.9
20260901044902 25 106 1.6 4.8 0.00 2.26 2.26 68 1015.9
20260901044403 24 135 1.6 4.8 0.00 2.26 2.26 68 1015.9
20260901043903 24 121 1.6 4.8 0.00 2.26 2.26 69 1015.8
20260901043403 24 121 1.6 4.8 0.00 2.26 2.26 70 1015.7
20260901042903 24 116 0.0 3.2 0.00 2.26 2.26 70 1015.7
20260901042403 24 112 0.0 3.2 0.00 2.26 2.26 71 1015.7
20260901041904 24 126 0.0 4.8 0.00 2.26 2.26 70 1015.6
20260901040903 24 111 0.0 4.8 0.00 2.26 2.26 70 1015.5
20260901040403 24 122 0.0 0.0 0.00 2.26 2.26 70 1015.4
20260901035904 24 117 0.0 0.0 0.00 2.26 2.26 70 1015.5
20260901035403 24 117 0.0 0.0 0.00 2.26 2.26 70 1015.6
20260901033904 24 105 0.0 0.0 0.00 2.26 2.26 72 1015.4
20260901033403 24 105 0.0 0.0 0.00 2.26 2.26 73 1015.3
20260901032903 24 105 0.0 0.0 0.00 2.26 2.26 72 1015.4
20260901031903 25 105 0.0 0.0 0.00 2.26 2.26 71 1015.3
20260901031403 25 105 0.0 0.0 0.00 2.26 2.26 70 1015.3
20260901030403 25 129 0.0 1.6 0.00 2.26 2.26 69 1015.2
20260901025903 25 135 0.0 1.6 0.00 2.26 2.26 69 1015.2
20260901024903 25 132 0.0 1.6 0.00 2.26 2.26 69 1015.0
20260901024403 25 104 0.0 1.6 0.00 2.26 2.26 69 1014.9
20260901023903 25 104 0.0 1.6 0.00 2.26 2.26 69 1014.8
20260901023403 25 104 0.0 1.6 0.00 2.26 2.26 69 1014.6
20260901022903 25 104 0.0 3.2 2.26 2.26 2.26 69 1014.4
20260901022403 25 104 0.0 3.2 2.26 2.26 2.26 68 1014.3
20260901021903 25 115 0.0 3.2 2.26 2.26 2.26 67 1014.3
20260901021403 25 106 0.0 1.6 2.26 2.26 2.26 68 1014.2
20260901020903 25 71 0.0 1.6 2.26 2.26 2.26 69 1014.1
20260901020403 26 71 0.0 1.6 2.26 2.26 2.26 68 1014.0
20260901015903 26 65 0.0 0.0 2.26 2.26 2.26 68 1014.0
20260901015403 26 65 0.0 0.0 2.26 2.26 2.26 67 1014.0
20260901014903 26 65 0.0 0.0 2.26 2.26 2.26 66 1014.1
20260901014404 26 65 0.0 0.0 2.26 2.26 2.26 66 1014.2
20260901013403 27 65 0.0 0.0 2.26 2.26 2.26 64 1013.8
20260901012403 27 53 0.0 4.8 0.00 0.00 0.00 64 1013.7
20260901011904 27 79 1.6 4.8 0.00 0.00 0.00 65 1013.7
20260901011404 27 57 0.0 3.2 0.00 0.00 0.00 64 1013.7
20260901010903 27 57 0.0 3.2 0.00 0.00 0.00 63 1013.5
20260901010404 27 88 0.0 3.2 0.00 0.00 0.00 61 1013.6
20260901005902 27 88 0.0 3.2 0.00 0.00 0.00 62 1013.7
20260901005404 27 74 0.0 3.2 0.00 0.00 0.00 61 1013.8
20260901004903 27 92 0.0 3.2 0.00 0.00 0.00 61 1013.8
20260901004404 27 106 0.0 3.2 0.00 0.00 0.00 60 1013.8
20260901003903 27 101 0.0 3.2 0.00 0.00 0.00 62 1013.8
20260901003403 27 110 0.0 3.2 0.00 0.00 0.00 60 1013.8
20260901002903 27 83 1.6 4.8 0.00 0.00 0.00 60 1013.8
20260901002403 27 138 0.0 4.8 0.00 0.00 0.00 60 1013.8
20260901001903 27 128 1.6 4.8 0.00 0.00 0.00 60 1013.9
20260901001403 27 121 1.6 4.8 0.00 0.00 0.00 59 1013.9
20260901000402 27 141 3.2 9.7 0.00 0.00 0.00 60 1013.9
20260831235903 27 121 4.8 9.7 0.00 0.00 0.00 59 1014.1
20260831235403 27 217 1.6 9.7 0.00 0.00 0.00 60 1013.9
20260831234903 27 111 1.6 12.9 0.00 0.00 0.00 60 1014.0
20260831234403 27 88 4.8 12.9 0.00 0.00 0.00 59 1014.1
20260831233903 27 138 4.8 11.3 0.00 0.00 0.00 60 1014.1
20260831232903 27 150 3.2 9.7 0.00 0.00 0.00 61 1014.0
20260831232403 27 119 3.2 12.9 0.00 0.00 0.00 62 1013.9
20260831231903 27 109 3.2 12.9 0.00 0.00 0.00 62 1014.0
20260831231403 27 185 3.2 11.3 0.00 0.00 0.00 62 1014.1
20260831230903 26 114 4.8 11.3 0.00 0.00 0.00 62 1014.1
20260831230403 26 116 1.6 12.9 0.00 0.00 0.00 64 1014.1
20260831225903 26 103 3.2 12.9 0.00 0.00 0.00 66 1014.2
20260831225402 26 161 1.6 9.7 0.00 0.00 0.00 67 1014.3
20260831224904 26 82 3.2 9.7 0.00 0.00 0.00 67 1014.4
20260831224404 26 118 3.2 4.8 0.00 0.00 0.00 68 1014.4
20260831223903 26 93 0.0 4.8 0.00 0.00 0.00 67 1014.5
20260831222903 26 131 3.2 4.8 0.00 0.00 0.00 67 1014.5
20260831222402 26 88 1.6 9.7 0.00 0.00 0.00 69 1014.6
20260831221903 26 144 1.6 11.3 0.00 0.00 0.00 67 1014.6
20260831221403 25 125 1.6 11.3 0.00 0.00 0.00 68 1014.7
20260831220903 25 150 1.6 4.8 0.00 0.00 0.00 72 1014.8
20260831220404 25 81 3.2 4.8 0.00 0.00 0.00 72 1015.1
20260831215903 25 127 1.6 12.9 0.00 0.00 0.00 72 1015.3
20260831215403 25 111 3.2 12.9 0.00 0.00 0.00 73 1015.3
20260831214903 25 305 3.2 12.9 0.00 0.00 0.00 74 1015.5
20260831213903 25 138 1.6 4.8 0.00 0.00 0.00 75 1015.8
20260831213403 25 79 0.0 8.0 0.00 0.00 0.00 75 1015.7
20260831212903 24 111 3.2 8.0 0.00 0.00 0.00 75 1015.8
20260831211403 24 136 1.6 8.0 0.00 0.00 0.00 76 1016.4
20260831210902 24 167 3.2 8.0 0.00 0.00 0.00 76 1016.6
20260831205903 24 93 1.6 4.8 0.00 0.00 0.00 76 1016.8
20260831205403 24 120 1.6 4.8 0.00 0.00 0.00 76 1016.9
20260831204903 24 116 1.6 4.8 0.00 0.00 0.00 76 1017.0
20260831204403 24 144 1.6 11.3 0.00 0.00 0.00 76 1017.3
20260831203903 24 112 3.2 11.3 0.00 0.00 0.00 76 1017.3
20260831203403 24 105 3.2 11.3 0.00 0.00 0.00 76 1017.5
20260831202903 24 140 3.2 11.3 0.00 0.00 0.00 76 1017.6
20260831202403 24 148 0.0 11.3 0.00 0.00 0.00 76 1018.0
20260831201404 24 103 3.2 12.9 0.00 0.00 0.00 75 1018.2
20260831200902 24 121 3.2 14.5 0.00 0.00 0.00 74 1018.3
20260831200403 24 91 3.2 14.5 0.00 0.00 0.00 74 1018.3
20260831195902 24 108 4.8 14.5 0.00 0.00 0.00 74 1018.5
20260831195403 24 143 6.4 14.5 0.00 0.00 0.00 73 1018.6
20260831194903 24 107 3.2 16.1 0.00 0.00 0.00 74 1018.6
20260831194403 25 110 6.4 16.1 0.00 0.00 0.00 73 1018.5
20260831193903 25 84 3.2 11.3 0.00 0.00 0.00 72 1018.8
20260831193403 25 58 4.8 16.1 0.00 0.00 0.00 72 1019.1
20260831192403 25 64 8.0 16.1 0.00 0.00 0.00 72 1018.6
20260831191904 25 58 4.8 16.1 0.00 0.00 0.00 71 1018.7
20260831191404 25 68 4.8 16.1 0.00 0.00 0.00 71 1018.8
20260831190904 25 56 8.0 16.1 0.00 0.00 0.00 72 1018.7
20260831190403 25 73 4.8 12.9 0.00 0.00 0.00 71 1019.0
20260831185903 25 54 4.8 11.3 0.00 0.00 0.00 71 1019.2
20260831185403 25 78 3.2 11.3 0.00 0.00 0.00 71 1019.4
20260831184904 25 99 1.6 11.3 0.00 0.00 0.00 71 1019.5
20260831184403 25 85 4.8 11.3 0.00 0.00 0.00 71 1019.5
20260831183903 25 43 1.6 4.8 0.00 0.00 0.00 71 1019.3
20260831183403 25 57 1.6 4.8 0.00 0.00 0.00 70 1019.4
20260831182903 25 63 0.0 4.8 0.00 0.00 0.00 70 1019.6
20260831182403 25 38 1.6 4.8 0.00 0.00 0.00 70 1019.7
20260831181903 25 348 0.0 1.6 0.00 0.00 0.00 71 1019.7
20260831180903 25 348 1.6 4.8 0.00 0.00 0.00 70 1019.7
20260831180403 25 253 1.6 4.8 0.00 0.00 0.00 71 1019.5
20260831175903 25 302 1.6 4.8 0.00 0.00 0.00 71 1019.6
20260831175403 25 38 3.2 4.8 0.00 0.00 0.00 70 1019.6
20260831174903 25 41 3.2 9.7 0.00 0.00 0.00 70 1019.7
20260831174403 25 18 1.6 9.7 0.00 0.00 0.00 70 1019.7
20260831173903 25 304 3.2 8.0 0.00 0.00 0.00 70 1019.6
20260831173403 25 300 1.6 4.8 0.00 0.00 0.00 70 1019.8
20260831172903 25 221 0.0 4.8 0.00 0.00 0.00 69 1019.9
20260831172403 25 230 1.6 4.8 0.00 0.00 0.00 68 1019.8
20260831171904 25 336 3.2 4.8 0.00 0.00 0.00 69 1019.4
20260831171403 26 5 3.2 4.8 0.00 0.00 0.00 69 1019.3
20260831170403 26 302 1.6 14.5 0.00 0.00 0.00 69 1019.2
20260831165903 26 230 3.2 14.5 0.00 0.00 0.00 69 1019.1
20260831165403 26 280 4.8 14.5 0.00 0.00 0.00 68 1019.0
20260831164903 26 198 1.6 9.7 0.00 0.00 0.00 67 1019.1
20260831164403 26 255 1.6 9.7 0.00 0.00 0.00 65 1019.0
20260831163903 26 215 3.2 12.9 0.00 0.00 0.00 64 1018.8
20260831163403 27 272 3.2 12.9 0.00 0.00 0.00 64 1018.5
20260831162403 27 289 3.2 12.9 0.00 0.00 0.00 63 1017.9
20260831161903 27 244 1.6 8.0 0.00 0.00 0.00 62 1017.8
20260831161403 27 318 4.8 8.0 0.00 0.00 0.00 60 1017.8